{"data":{"norad_id":32729,"intl_designator":"2008-013A","name":"DIRECTV 11","alt_names":[],"object_type":"PAYLOAD","status":"ACTIVE","operator":null,"country":"US","launch_date":"2008-03-19","launch_site_code":"SEAL","launch_vehicle":null,"mission":null,"orbit_class":"UNKNOWN","rcs_meters":6.3246,"size_class":null,"mass_kg":null,"dimensions":null,"purposes":["comms"],"wikipedia_slug":null,"has_3d_model":false,"image_url":null,"decayed_at":null,"tle_current":{"epoch":"2026-09-19T21:39:38.598912Z","epoch_age_seconds":66073,"freshness":"FRESH","line1":"1 32729U 08013A   26262.90253008 -.00000130  00000+0  00000+0 0  9993","line2":"2 32729   0.0375   9.2645 0000348  69.0686 146.2140  1.00272647 46542","mean_motion":1.00272647,"eccentricity":3.48e-5,"inclination_deg":0.0375,"raan_deg":9.2645,"arg_perigee_deg":69.0686,"mean_anomaly_deg":146.214,"bstar":0,"rev_number":4654,"period_min":1436.0845585337,"perigee_km":35784.885988767,"apogee_km":35787.820637293,"semimajor_km":42164.49031303,"source":"CELESTRAK","updated_at":"2026-09-20T09:00:35.517029Z"}}}